• In Deutschland
  • Länderverzeichnis
  • Für 7 Tage
  • Wassertemperatur
  • Satellitenkarten
  • Wetterkarte
  • Widgets
  • user-avatar
    Anmelden

    Stündliche Wetter Leverkusen

    Heute, 17 Juli, Dienstag

    Zeit Temperatur Niederschläge Wind Luftdruck Luftfeuchtigkeit
    00:00 +22°C° 0 mm 1 m/S 755 mmHg 59%
    01:00 +21°C° 0 mm 1 m/S 755 mmHg 61%
    02:00 +21°C° 0 mm 1 m/S 755 mmHg 63%
    03:00 +20°C° 0 mm 1 m/S 755 mmHg 65%
    04:00 +21°C° 0 mm 1 m/S 756 mmHg 64%
    05:00 +22°C° 0 mm 1 m/S 756 mmHg 63%
    06:00 +23°C° 0 mm 1 m/S 756 mmHg 61%
    07:00 +24°C° 0 mm 2 m/S 756 mmHg 56%
    08:00 +26°C° 0 mm 2 m/S 756 mmHg 51%
    09:00 +28°C° 0 mm 2 m/S 756 mmHg 46%
    10:00 +28°C° 0,1 mm 3 m/S 756 mmHg 43%
    11:00 +29°C° 0,1 mm 3 m/S 756 mmHg 41%
    12:00 +30°C° 0,1 mm 3 m/S 756 mmHg 38%
    13:00 +30°C° 0,1 mm 3 m/S 756 mmHg 40%
    14:00 +30°C° 0,1 mm 3 m/S 756 mmHg 41%
    15:00 +30°C° 0,1 mm 4 m/S 756 mmHg 42%
    16:00 +29°C° 0,1 mm 3 m/S 756 mmHg 47%
    17:00 +27°C° 0,1 mm 3 m/S 756 mmHg 52%
    18:00 +26°C° 0,1 mm 3 m/S 756 mmHg 57%
    19:00 +25°C° 0,2 mm 3 m/S 757 mmHg 61%
    20:00 +22°C° 0,2 mm 3 m/S 757 mmHg 65%
    21:00 +21°C° 0,2 mm 3 m/S 758 mmHg 69%
    22:00 +20°C° 0 mm 2 m/S 758 mmHg 70%
    23:00 +19°C° 0 mm 2 m/S 758 mmHg 71%

    Morgen, 18 Juli, Mittwoch

    Zeit Temperatur Niederschläge Wind Luftdruck Luftfeuchtigkeit
    00:00 +18°C° 0 mm 2 m/S 758 mmHg 72%
    01:00 +18°C° 0 mm 1 m/S 758 mmHg 73%
    02:00 +18°C° 0 mm 1 m/S 758 mmHg 74%
    03:00 +16°C° 0 mm 1 m/S 759 mmHg 76%
    04:00 +18°C° 0 mm 1 m/S 759 mmHg 74%
    05:00 +19°C° 0 mm 1 m/S 759 mmHg 72%
    06:00 +19°C° 0 mm 1 m/S 759 mmHg 70%
    07:00 +21°C° 0 mm 1 m/S 759 mmHg 63%
    08:00 +23°C° 0 mm 1 m/S 759 mmHg 56%
    09:00 +24°C° 0 mm 2 m/S 759 mmHg 49%
    10:00 +25°C° 0 mm 2 m/S 759 mmHg 45%
    11:00 +27°C° 0 mm 2 m/S 759 mmHg 42%
    12:00 +28°C° 0 mm 1 m/S 759 mmHg 38%
    13:00 +28°C° 0 mm 2 m/S 759 mmHg 37%
    14:00 +28°C° 0 mm 2 m/S 759 mmHg 37%
    15:00 +28°C° 0 mm 2 m/S 758 mmHg 37%
    16:00 +27°C° 0 mm 2 m/S 758 mmHg 41%
    17:00 +27°C° 0 mm 2 m/S 759 mmHg 46%
    18:00 +26°C° 0 mm 2 m/S 759 mmHg 50%
    19:00 +24°C° 0 mm 2 m/S 759 mmHg 55%
    20:00 +23°C° 0 mm 2 m/S 759 mmHg 59%
    21:00 +20°C° 0 mm 2 m/S 760 mmHg 64%
    22:00 +20°C° 0 mm 2 m/S 760 mmHg 67%
    23:00 +20°C° 0 mm 1 m/S 760 mmHg 70%

    übermorgen, 19 Juli, Donnerstag

    Zeit Temperatur Niederschläge Wind Luftdruck Luftfeuchtigkeit
    00:00 +19°C° 0 mm 1 m/S 760 mmHg 73%
    01:00 +19°C° 0 mm 1 m/S 760 mmHg 75%
    02:00 +18°C° 0 mm 1 m/S 760 mmHg 77%
    03:00 +18°C° 0 mm 1 m/S 760 mmHg 79%
    04:00 +17°C° 0 mm 0 m/S 760 mmHg 75%
    05:00 +18°C° 0 mm 0 m/S 760 mmHg 71%
    06:00 +19°C° 0 mm 0 m/S 760 mmHg 67%
    07:00 +23°C° 0 mm 1 m/S 760 mmHg 61%
    08:00 +25°C° 0 mm 1 m/S 760 mmHg 54%
    09:00 +26°C° 0 mm 1 m/S 760 mmHg 48%
    10:00 +26°C° 0 mm 1 m/S 760 mmHg 47%
    11:00 +26°C° 0 mm 1 m/S 760 mmHg 47%
    12:00 +26°C° 0 mm 1 m/S 759 mmHg 47%
    13:00 +27°C° 0 mm 1 m/S 759 mmHg 45%
    14:00 +27°C° 0 mm 1 m/S 759 mmHg 44%
    15:00 +28°C° 0 mm 1 m/S 759 mmHg 42%
    16:00 +27°C° 0 mm 1 m/S 759 mmHg 45%
    17:00 +27°C° 0 mm 1 m/S 759 mmHg 48%
    18:00 +26°C° 0 mm 1 m/S 759 mmHg 51%
    19:00 +25°C° 0 mm 1 m/S 759 mmHg 55%
    20:00 +23°C° 0 mm 1 m/S 759 mmHg 59%
    21:00 +21°C° 0 mm 2 m/S 759 mmHg 63%
    22:00 +20°C° 0 mm 2 m/S 759 mmHg 66%
    23:00 +19°C° 0 mm 2 m/S 759 mmHg 69%

    20 Juli, Freitag

    Zeit Temperatur Niederschläge Wind Luftdruck Luftfeuchtigkeit
    00:00 +18°C° 0 mm 2 m/S 759 mmHg 72%
    01:00 +18°C° 0 mm 2 m/S 759 mmHg 74%
    02:00 +19°C° 0 mm 1 m/S 759 mmHg 77%
    03:00 +18°C° 0 mm 1 m/S 759 mmHg 79%
    04:00 +19°C° 0 mm 1 m/S 759 mmHg 75%
    05:00 +20°C° 0 mm 1 m/S 758 mmHg 71%
    06:00 +21°C° 0 mm 1 m/S 758 mmHg 68%
    07:00 +23°C° 0 mm 1 m/S 758 mmHg 60%
    08:00 +25°C° 0 mm 2 m/S 758 mmHg 53%
    09:00 +27°C° 0 mm 2 m/S 758 mmHg 46%
    10:00 +28°C° 0 mm 2 m/S 758 mmHg 42%
    11:00 +29°C° 0 mm 2 m/S 757 mmHg 39%
    12:00 +30°C° 0 mm 2 m/S 757 mmHg 35%
    13:00 +30°C° 0 mm 2 m/S 757 mmHg 35%
    14:00 +30°C° 0 mm 2 m/S 756 mmHg 35%
    15:00 +30°C° 0 mm 2 m/S 756 mmHg 35%
    16:00 +29°C° 0 mm 2 m/S 756 mmHg 39%
    17:00 +28°C° 0 mm 2 m/S 756 mmHg 44%
    18:00 +27°C° 0 mm 2 m/S 756 mmHg 48%
    19:00 +25°C° 0 mm 2 m/S 756 mmHg 51%
    20:00 +24°C° 0 mm 2 m/S 756 mmHg 54%
    21:00 +21°C° 0 mm 2 m/S 756 mmHg 57%
    22:00 +21°C° 0 mm 2 m/S 756 mmHg 59%
    23:00 +20°C° 0 mm 2 m/S 756 mmHg 62%

    21 Juli, Samstag

    Zeit Temperatur Niederschläge Wind Luftdruck Luftfeuchtigkeit
    00:00 +20°C° 0 mm 2 m/S 756 mmHg 64%
    01:00 +19°C° 0 mm 2 m/S 756 mmHg 66%
    02:00 +19°C° 0 mm 2 m/S 756 mmHg 68%
    03:00 +19°C° 0 mm 1 m/S 756 mmHg 70%
    04:00 +20°C° 0 mm 1 m/S 756 mmHg 68%
    05:00 +21°C° 0 mm 1 m/S 756 mmHg 66%
    06:00 +21°C° 0 mm 1 m/S 757 mmHg 65%
    07:00 +23°C° 0 mm 1 m/S 757 mmHg 58%
    08:00 +25°C° 0 mm 2 m/S 757 mmHg 52%
    09:00 +26°C° 0 mm 2 m/S 757 mmHg 46%
    10:00 +27°C° 0 mm 2 m/S 757 mmHg 42%
    11:00 +28°C° 0 mm 2 m/S 757 mmHg 38%
    12:00 +29°C° 0 mm 3 m/S 756 mmHg 34%
    13:00 +29°C° 0 mm 3 m/S 756 mmHg 33%
    14:00 +30°C° 0 mm 3 m/S 756 mmHg 32%
    15:00 +30°C° 0 mm 3 m/S 756 mmHg 31%
    16:00 +29°C° 0 mm 3 m/S 756 mmHg 35%
    17:00 +28°C° 0 mm 2 m/S 757 mmHg 38%
    18:00 +27°C° 0 mm 2 m/S 757 mmHg 42%
    19:00 +25°C° 0 mm 2 m/S 757 mmHg 47%
    20:00 +24°C° 0 mm 2 m/S 758 mmHg 51%
    21:00 +21°C° 0 mm 2 m/S 758 mmHg 56%
    22:00 +20°C° 0 mm 2 m/S 758 mmHg 60%
    23:00 +20°C° 0 mm 2 m/S 759 mmHg 64%

    22 Juli, Sonntag

    Zeit Temperatur Niederschläge Wind Luftdruck Luftfeuchtigkeit
    00:00 +20°C° 0 mm 1 m/S 759 mmHg 68%
    01:00 +20°C° 0 mm 1 m/S 759 mmHg 71%
    02:00 +19°C° 0 mm 1 m/S 759 mmHg 74%
    03:00 +19°C° 0 mm 1 m/S 759 mmHg 77%
    04:00 +19°C° 0 mm 1 m/S 759 mmHg 74%
    05:00 +20°C° 0 mm 1 m/S 759 mmHg 72%
    06:00 +21°C° 0 mm 1 m/S 759 mmHg 69%
    07:00 +22°C° 0 mm 1 m/S 759 mmHg 61%
    08:00 +24°C° 0 mm 1 m/S 759 mmHg 54%
    09:00 +25°C° 0 mm 2 m/S 759 mmHg 47%
    10:00 +26°C° 0 mm 2 m/S 759 mmHg 44%
    11:00 +27°C° 0 mm 2 m/S 758 mmHg 42%
    12:00 +28°C° 0 mm 2 m/S 758 mmHg 39%
    13:00 +28°C° 0 mm 2 m/S 758 mmHg 40%
    14:00 +28°C° 0 mm 2 m/S 758 mmHg 42%
    15:00 +28°C° 0 mm 2 m/S 758 mmHg 44%
    16:00 +27°C° 0 mm 2 m/S 758 mmHg 47%
    17:00 +27°C° 0 mm 2 m/S 758 mmHg 49%
    18:00 +26°C° 0 mm 2 m/S 758 mmHg 52%
    19:00 +25°C° 0 mm 1 m/S 758 mmHg 56%
    20:00 +24°C° 0 mm 1 m/S 759 mmHg 60%
    21:00 +22°C° 0 mm 1 m/S 759 mmHg 63%
    22:00 +22°C° 0 mm 1 m/S 759 mmHg 66%
    23:00 +21°C° 0 mm 1 m/S 759 mmHg 69%
    Mehr zeigen